10-12-2023, 00:00:05,    221,    3.7,    6.5,   0.00,   0.00, 1000.9,   59.4, -999.0
10-12-2023, 00:00:15,    257,    2.9,    6.5,   0.00,   0.00, 1001.0,   59.5, -999.0
10-12-2023, 00:00:25,    274,    3.1,    6.5,   0.00,   0.00, 1001.0,   59.5, -999.0
10-12-2023, 00:00:35,    281,    3.7,    6.5,   0.00,   0.00, 1001.0,   59.5, -999.0
10-12-2023, 00:00:45,    244,    2.7,    6.5,   0.00,   0.00, 1000.9,   59.4, -999.0
10-12-2023, 00:00:55,    252,    2.2,    6.5,   0.00,   0.00, 1001.0,   59.5, -999.0
10-12-2023, 00:01:05,    224,    2.7,    6.5,   0.00,   0.00, 1001.0,   59.5, -999.0
10-12-2023, 00:01:15,    225,    3.4,    6.4,   0.00,   0.00, 1001.0,   59.5, -999.0
10-12-2023, 00:01:25,    241,    4.0,    6.4,   0.00,   0.00, 1001.0,   59.5, -999.0
10-12-2023, 00:01:35,    294,    2.2,    6.4,   0.00,   0.00, 1001.0,   59.5, -999.0
10-12-2023, 00:01:45,    236,    0.4,    6.4,   0.00,   0.00, 1000.9,   59.3, -999.0
10-12-2023, 00:01:55,    230,    0.6,    6.4,   0.00,   0.00, 1001.0,   59.5, -999.0
10-12-2023, 00:02:04,    231,    0.3,    6.4,   0.00,   0.00, 1000.9,   59.5, -999.0
10-12-2023, 00:02:15,    243,    1.9,    6.4,   0.00,   0.00, 1001.0,   59.5, -999.0
10-12-2023, 00:02:25,    275,    1.2,    6.5,   0.00,   0.00, 1001.0,   59.5, -999.0
10-12-2023, 00:02:35,    282,    2.2,    6.5,   0.00,   0.00, 1001.0,   59.7, -999.0
10-12-2023, 00:02:45,    281,    1.6,    6.4,   0.00,   0.00, 1001.0,   59.6, -999.0
10-12-2023, 00:02:55,    275,    0.8,    6.4,   0.00,   0.00, 1001.0,   59.6, -999.0
10-12-2023, 00:03:05,    246,    1.3,    6.4,   0.00,   0.00, 1001.0,   59.6, -999.0
10-12-2023, 00:03:14,    250,    1.0,    6.3,   0.00,   0.00, 1001.0,   59.7, -999.0
10-12-2023, 00:03:25,    243,    0.4,    6.4,   0.00,   0.00, 1001.0,   59.7, -999.0
10-12-2023, 00:03:35,    234,    0.8,    6.4,   0.00,   0.00, 1001.0,   59.6, -999.0
10-12-2023, 00:03:44,    228,    2.6,    6.4,   0.00,   0.00, 1001.0,   59.8, -999.0
10-12-2023, 00:03:54,    285,    1.2,    6.4,   0.00,   0.00, 1001.0,   59.8, -999.0
10-12-2023, 00:04:05,    242,    3.2,    6.4,   0.00,   0.00, 1001.0,   59.9, -999.0
10-12-2023, 00:04:14,    247,    3.4,    6.4,   0.00,   0.00, 1001.0,   59.8, -999.0
10-12-2023, 00:04:24,    255,    2.4,    6.4,   0.00,   0.00, 1001.1,   59.8, -999.0
10-12-2023, 00:04:34,    220,    2.1,    6.4,   0.00,   0.00, 1001.1,   59.8, -999.0
10-12-2023, 00:04:45,    223,    1.2,    6.5,   0.00,   0.00, 1001.0,   59.8, -999.0
10-12-2023, 00:04:54,    273,    2.1,    6.4,   0.00,   0.00, 1001.0,   59.8, -999.0
10-12-2023, 00:05:04,    259,    1.2,    6.4,   0.00,   0.00, 1001.1,   59.8, -999.0
10-12-2023, 00:05:15,    262,    0.8,    6.3,   0.00,   0.00, 1001.1,   59.8, -999.0
10-12-2023, 00:05:24,    238,    1.1,    6.4,   0.00,   0.00, 1001.1,   59.9, -999.0
10-12-2023, 00:05:34,    264,    1.3,    6.4,   0.00,   0.00, 1001.1,   59.8, -999.0
10-12-2023, 00:05:44,    245,    2.1,    6.3,   0.00,   0.00, 1001.1,   59.8, -999.0
10-12-2023, 00:05:54,    253,    0.3,    6.3,   0.00,   0.00, 1001.0,   59.8, -999.0
10-12-2023, 00:06:04,    253,    0.1,    6.3,   0.00,   0.00, 1001.0,   59.8, -999.0
10-12-2023, 00:06:14,    250,    0.0,    6.3,   0.00,   0.00, 1001.0,   59.7, -999.0
10-12-2023, 00:06:24,    257,    0.6,    6.3,   0.00,   0.00, 1001.1,   59.9, -999.0
10-12-2023, 00:06:34,    238,    1.2,    6.3,   0.00,   0.00, 1001.1,   59.8, -999.0
10-12-2023, 00:06:44,    247,    2.5,    6.2,   0.00,   0.00, 1001.0,   60.0, -999.0
10-12-2023, 00:06:54,    253,    3.5,    6.4,   0.00,   0.00, 1001.1,   60.0, -999.0
10-12-2023, 00:07:04,    271,    2.8,    6.3,   0.00,   0.00, 1001.1,   60.0, -999.0
10-12-2023, 00:07:14,    242,    5.0,    6.4,   0.00,   0.00, 1001.1,   60.0, -999.0
10-12-2023, 00:07:24,    226,    2.9,    6.4,   0.00,   0.00, 1001.1,   60.0, -999.0
10-12-2023, 00:07:34,    269,    1.9,    6.4,   0.00,   0.00, 1001.1,   60.1, -999.0
10-12-2023, 00:07:44,    243,    1.0,    6.3,   0.00,   0.00, 1001.1,   60.0, -999.0
10-12-2023, 00:07:54,    244,    0.1,    6.3,   0.00,   0.00, 1001.0,   59.9, -999.0
10-12-2023, 00:08:04,    259,    1.1,    6.3,   0.00,   0.00, 1001.0,   60.0, -999.0
10-12-2023, 00:08:14,    203,    0.8,    6.4,   0.00,   0.00, 1001.0,   60.1, -999.0
10-12-2023, 00:08:24,    203,    0.8,    6.4,   0.00,   0.00, 1001.1,   60.1, -999.0
10-12-2023, 00:08:34,    204,    0.8,    6.3,   0.00,   0.00, 1001.1,   60.2, -999.0
10-12-2023, 00:08:44,    205,    0.2,    6.3,   0.00,   0.00, 1001.0,   59.9, -999.0
10-12-2023, 00:08:54,    241,    2.6,    6.4,   0.00,   0.00, 1001.2,   60.1, -999.0
10-12-2023, 00:09:04,    226,    3.1,    6.4,   0.00,   0.00, 1001.1,   60.2, -999.0
10-12-2023, 00:09:14,    285,    4.4,    6.4,   0.00,   0.00, 1001.2,   60.1, -999.0
10-12-2023, 00:09:24,    271,    4.5,    6.3,   0.00,   0.00, 1001.1,   60.2, -999.0
10-12-2023, 00:09:34,    211,    1.2,    6.3,   0.00,   0.00, 1001.1,   60.2, -999.0
10-12-2023, 00:09:44,    212,    1.1,    6.2,   0.00,   0.00, 1001.1,   60.2, -999.0
10-12-2023, 00:09:54,    206,    2.6,    6.3,   0.00,   0.00, 1001.1,   60.3, -999.0
10-12-2023, 00:10:04,    203,    3.8,    6.3,   0.00,   0.00, 1001.1,   60.3, -999.0
10-12-2023, 00:10:13,    243,    1.8,    6.3,   0.00,   0.00, 1001.1,   60.4, -999.0
10-12-2023, 00:10:24,    242,    1.3,    6.4,   0.00,   0.00, 1001.1,   60.3, -999.0
10-12-2023, 00:10:34,    256,    2.3,    6.3,   0.00,   0.00, 1001.1,   60.3, -999.0
10-12-2023, 00:10:43,    256,    0.7,    6.4,   0.00,   0.00, 1001.1,   60.3, -999.0
10-12-2023, 00:10:53,    275,    2.1,    6.4,   0.00,   0.00, 1001.1,   60.3, -999.0
10-12-2023, 00:11:04,    251,    3.5,    6.4,   0.00,   0.00, 1001.1,   60.3, -999.0
10-12-2023, 00:11:14,    267,    3.4,    6.3,   0.00,   0.00, 1001.1,   60.2, -999.0
10-12-2023, 00:11:23,    254,    1.7,    6.3,   0.00,   0.00, 1001.1,   60.4, -999.0
10-12-2023, 00:11:34,    246,    1.7,    6.3,   0.00,   0.00, 1001.1,   60.4, -999.0
10-12-2023, 00:11:44,    247,    1.4,    6.3,   0.00,   0.00, 1001.1,   60.4, -999.0
10-12-2023, 00:11:53,    242,    0.7,    6.3,   0.00,   0.00, 1001.1,   60.4, -999.0
10-12-2023, 00:12:03,    227,    0.7,    6.2,   0.00,   0.00, 1001.0,   60.3, -999.0
10-12-2023, 00:12:14,    225,    2.0,    6.3,   0.00,   0.00, 1001.1,   60.5, -999.0
10-12-2023, 00:12:23,    251,    0.4,    6.2,   0.00,   0.00, 1001.0,   60.6, -999.0
10-12-2023, 00:12:33,    252,    0.8,    6.3,   0.00,   0.00, 1001.1,   60.6, -999.0
10-12-2023, 00:12:43,    233,    0.4,    6.2,   0.00,   0.00, 1001.0,   60.4, -999.0
10-12-2023, 00:12:54,    242,    3.1,    6.3,   0.00,   0.00, 1001.1,   60.7, -999.0
10-12-2023, 00:13:03,    237,    4.5,    6.3,   0.00,   0.00, 1001.1,   60.7, -999.0
10-12-2023, 00:13:13,    262,    2.2,    6.2,   0.00,   0.00, 1001.1,   60.6, -999.0
10-12-2023, 00:13:23,    242,    1.8,    6.3,   0.00,   0.00, 1001.2,   60.7, -999.0
10-12-2023, 00:13:33,    260,    2.4,    6.2,   0.00,   0.00, 1001.2,   60.6, -999.0
10-12-2023, 00:13:43,    253,    2.4,    6.3,   0.00,   0.00, 1001.1,   60.6, -999.0
10-12-2023, 00:13:53,    264,    1.8,    6.3,   0.00,   0.00, 1001.1,   60.7, -999.0
10-12-2023, 00:14:03,    258,    0.1,    6.2,   0.00,   0.00, 1001.0,   60.5, -999.0
10-12-2023, 00:14:13,    262,    0.8,    6.2,   0.00,   0.00, 1001.1,   60.6, -999.0
10-12-2023, 00:14:23,    253,    1.5,    6.3,   0.00,   0.00, 1001.1,   60.7, -999.0
10-12-2023, 00:14:33,    255,    1.2,    6.2,   0.00,   0.00, 1001.2,   60.6, -999.0
10-12-2023, 00:14:43,    254,    1.6,    6.2,   0.00,   0.00, 1001.1,   60.5, -999.0
10-12-2023, 00:14:53,    250,    4.0,    6.2,   0.00,   0.00, 1001.2,   60.8, -999.0
10-12-2023, 00:15:03,    238,    2.8,    6.2,   0.00,   0.00, 1001.2,   60.8, -999.0
10-12-2023, 00:15:13,    239,    3.5,    6.2,   0.00,   0.00, 1001.2,   60.8, -999.0
10-12-2023, 00:15:23,    232,    3.7,    6.3,   0.00,   0.00, 1001.2,   60.7, -999.0
10-12-2023, 00:15:34,    249,    1.8,    6.3,   0.00,   0.00, 1001.2,   60.7, -999.0
10-12-2023, 00:15:43,    243,    2.6,    6.2,   0.00,   0.00, 1001.2,   60.7, -999.0
10-12-2023, 00:15:53,    247,    2.9,    6.3,   0.00,   0.00, 1001.1,   60.6, -999.0
10-12-2023, 00:16:03,    251,    1.3,    6.3,   0.00,   0.00, 1001.1,   60.7, -999.0
10-12-2023, 00:16:13,    245,    0.9,    6.3,   0.00,   0.00, 1001.2,   60.7, -999.0
10-12-2023, 00:16:23,    243,    4.0,    6.3,   0.00,   0.00, 1001.2,   60.7, -999.0
10-12-2023, 00:16:33,    225,    2.5,    6.2,   0.00,   0.00, 1001.1,   60.7, -999.0
10-12-2023, 00:16:43,    287,    1.2,    6.3,   0.00,   0.00, 1001.1,   60.6, -999.0
10-12-2023, 00:16:53,    267,    0.9,    6.3,   0.00,   0.00, 1001.1,   60.7, -999.0
10-12-2023, 00:17:03,    252,    0.6,    6.2,   0.00,   0.00, 1001.0,   60.4, -999.0
10-12-2023, 00:17:13,    266,    4.4,    6.3,   0.00,   0.00, 1001.1,   60.7, -999.0
10-12-2023, 00:17:23,    282,    2.7,    6.3,   0.00,   0.00, 1001.1,   60.8, -999.0
10-12-2023, 00:17:33,    264,    0.6,    6.2,   0.00,   0.00, 1001.1,   60.6, -999.0
10-12-2023, 00:17:43,    256,    2.3,    6.2,   0.00,   0.00, 1001.1,   60.7, -999.0
10-12-2023, 00:17:53,    255,    3.4,    6.3,   0.00,   0.00, 1001.1,   60.8, -999.0
10-12-2023, 00:18:03,    245,    1.8,    6.3,   0.00,   0.00, 1001.1,   60.7, -999.0
10-12-2023, 00:18:13,    185,    1.5,    6.3,   0.00,   0.00, 1001.0,   60.7, -999.0
10-12-2023, 00:18:22,    206,    1.4,    6.3,   0.00,   0.00, 1001.0,   60.7, -999.0
10-12-2023, 00:18:33,    243,    1.3,    6.2,   0.00,   0.00, 1001.1,   60.8, -999.0
10-12-2023, 00:18:43,    261,    0.6,    6.2,   0.00,   0.00, 1001.1,   60.7, -999.0
10-12-2023, 00:18:53,    261,    0.0,    6.1,   0.00,   0.00, 1001.0,   60.5, -999.0
10-12-2023, 00:19:02,    243,    3.1,    6.2,   0.00,   0.00, 1001.1,   60.7, -999.0
10-12-2023, 00:19:13,    219,    1.3,    6.3,   0.00,   0.00, 1001.1,   60.7, -999.0
10-12-2023, 00:19:23,    216,    0.5,    6.2,   0.00,   0.00, 1001.1,   60.7, -999.0
10-12-2023, 00:19:32,    223,    0.7,    6.3,   0.00,   0.00, 1001.1,   60.8, -999.0
10-12-2023, 00:19:42,    229,    2.3,    6.2,   0.00,   0.00, 1001.1,   60.7, -999.0
10-12-2023, 00:19:53,    226,    1.4,    6.2,   0.00,   0.00, 1001.1,   60.8, -999.0
10-12-2023, 00:20:02,    248,    1.2,    6.3,   0.00,   0.00, 1001.1,   60.7, -999.0
10-12-2023, 00:20:12,    269,    2.4,    6.2,   0.00,   0.00, 1001.1,   60.7, -999.0
10-12-2023, 00:20:22,    261,    2.9,    6.3,   0.00,   0.00, 1001.0,   60.7, -999.0
10-12-2023, 00:20:32,    257,    2.8,    6.3,   0.00,   0.00, 1001.1,   60.7, -999.0
10-12-2023, 00:20:42,    260,    2.6,    6.3,   0.00,   0.00, 1001.1,   60.7, -999.0
10-12-2023, 00:20:52,    201,    4.5,    6.2,   0.00,   0.00, 1001.1,   60.8, -999.0
10-12-2023, 00:21:03,    250,    3.8,    6.2,   0.00,   0.00, 1001.1,   60.7, -999.0
10-12-2023, 00:21:12,    221,    6.0,    6.2,   0.00,   0.00, 1001.1,   60.7, -999.0
10-12-2023, 00:21:22,    247,    5.7,    6.3,   0.00,   0.00, 1001.1,   60.7, -999.0
10-12-2023, 00:21:32,    236,    5.9,    6.3,   0.00,   0.00, 1001.1,   60.6, -999.0
10-12-2023, 00:21:42,    249,    6.3,    6.3,   0.00,   0.00, 1001.1,   60.6, -999.0
10-12-2023, 00:21:52,    234,    2.6,    6.4,   0.00,   0.00, 1001.1,   60.6, -999.0
10-12-2023, 00:22:02,    250,    2.0,    6.3,   0.00,   0.00, 1001.1,   60.5, -999.0
10-12-2023, 00:22:12,    254,    2.0,    6.4,   0.00,   0.00, 1001.0,   60.4, -999.0
10-12-2023, 00:22:22,    261,    3.5,    6.3,   0.00,   0.00, 1001.1,   60.4, -999.0
10-12-2023, 00:22:33,    193,    3.4,    6.3,   0.00,   0.00, 1001.1,   60.5, -999.0
10-12-2023, 00:22:42,    261,    4.4,    6.3,   0.00,   0.00, 1001.2,   60.5, -999.0
10-12-2023, 00:22:52,    242,    4.9,    6.3,   0.00,   0.00, 1001.2,   60.5, -999.0
10-12-2023, 00:23:02,    258,    3.8,    6.3,   0.00,   0.00, 1001.2,   60.5, -999.0
10-12-2023, 00:23:12,    250,    5.4,    6.3,   0.00,   0.00, 1001.2,   60.4, -999.0
10-12-2023, 00:23:22,    267,    3.5,    6.3,   0.00,   0.00, 1001.2,   60.5, -999.0
10-12-2023, 00:23:32,    234,    2.1,    6.3,   0.00,   0.00, 1001.2,   60.5, -999.0
10-12-2023, 00:23:42,    238,    4.8,    6.3,   0.00,   0.00, 1001.2,   60.5, -999.0
10-12-2023, 00:23:52,    211,    3.1,    6.3,   0.00,   0.00, 1001.2,   60.5, -999.0
10-12-2023, 00:24:02,    235,    1.9,    6.3,   0.00,   0.00, 1001.2,   60.4, -999.0
10-12-2023, 00:24:12,    234,    0.0,    6.2,   0.00,   0.00, 1001.0,   60.0, -999.0
10-12-2023, 00:24:22,    266,    2.3,    6.3,   0.00,   0.00, 1001.1,   60.2, -999.0
10-12-2023, 00:24:32,    221,    5.2,    6.3,   0.00,   0.00, 1001.2,   60.4, -999.0
10-12-2023, 00:24:42,    228,    3.4,    6.3,   0.00,   0.00, 1001.2,   60.4, -999.0
10-12-2023, 00:24:52,    260,    4.8,    6.3,   0.00,   0.00, 1001.2,   60.5, -999.0
10-12-2023, 00:25:02,    234,    3.6,    6.3,   0.00,   0.00, 1001.2,   60.3, -999.0
10-12-2023, 00:25:12,    254,    1.9,    6.3,   0.00,   0.00, 1001.2,   60.4, -999.0
10-12-2023, 00:25:22,    256,    2.2,    6.3,   0.00,   0.00, 1001.2,   60.4, -999.0
10-12-2023, 00:25:32,    250,    4.0,    6.3,   0.00,   0.00, 1001.2,   60.5, -999.0
10-12-2023, 00:25:43,    166,    4.0,    6.3,   0.00,   0.00, 1001.2,   60.4, -999.0
10-12-2023, 00:25:52,    254,    2.2,    6.3,   0.00,   0.00, 1001.2,   60.5, -999.0
10-12-2023, 00:26:01,    219,    2.7,    6.3,   0.00,   0.00, 1001.2,   60.5, -999.0
10-12-2023, 00:26:12,    286,    2.0,    6.3,   0.00,   0.00, 1001.2,   60.5, -999.0
10-12-2023, 00:26:22,    246,    0.8,    6.2,   0.00,   0.00, 1001.1,   60.3, -999.0
10-12-2023, 00:26:31,    244,    1.3,    6.2,   0.00,   0.00, 1001.2,   60.5, -999.0
10-12-2023, 00:26:42,    263,    1.6,    6.2,   0.00,   0.00, 1001.2,   60.5, -999.0
10-12-2023, 00:26:52,    257,    0.9,    6.2,   0.00,   0.00, 1001.2,   60.6, -999.0
10-12-2023, 00:27:02,    254,    2.0,    6.1,   0.00,   0.00, 1001.2,   60.7, -999.0
10-12-2023, 00:27:11,    255,    2.1,    6.3,   0.00,   0.00, 1001.2,   60.6, -999.0
10-12-2023, 00:27:22,    284,    3.5,    6.3,   0.00,   0.00, 1001.2,   60.7, -999.0
10-12-2023, 00:27:32,    213,    2.7,    6.2,   0.00,   0.00, 1001.2,   60.6, -999.0
10-12-2023, 00:27:41,    273,    2.6,    6.2,   0.00,   0.00, 1001.2,   60.7, -999.0
10-12-2023, 00:27:51,    220,    4.3,    6.2,   0.00,   0.00, 1001.2,   60.7, -999.0
10-12-2023, 00:28:02,    258,    3.1,    6.3,   0.00,   0.00, 1001.3,   60.7, -999.0
10-12-2023, 00:28:11,    249,    5.2,    6.3,   0.00,   0.00, 1001.2,   60.6, -999.0
10-12-2023, 00:28:21,    255,    2.5,    6.3,   0.00,   0.00, 1001.2,   60.6, -999.0
10-12-2023, 00:28:31,    266,    1.9,    6.3,   0.00,   0.00, 1001.2,   60.6, -999.0
10-12-2023, 00:28:42,    258,    1.5,    6.3,   0.00,   0.00, 1001.3,   60.5, -999.0
10-12-2023, 00:28:51,    258,    0.0,    6.1,   0.00,   0.00, 1001.1,   60.3, -999.0
10-12-2023, 00:29:01,    231,    1.4,    6.2,   0.00,   0.00, 1001.3,   60.6, -999.0
10-12-2023, 00:29:11,    237,    1.9,    6.2,   0.00,   0.00, 1001.3,   60.6, -999.0
10-12-2023, 00:29:21,    237,    0.1,    6.2,   0.00,   0.00, 1001.2,   60.5, -999.0
10-12-2023, 00:29:31,    237,    0.8,    6.1,   0.00,   0.00, 1001.2,   60.6, -999.0
10-12-2023, 00:29:41,    239,    2.8,    6.2,   0.00,   0.00, 1001.3,   60.8, -999.0
10-12-2023, 00:29:51,    227,    3.6,    6.2,   0.00,   0.00, 1001.3,   60.8, -999.0
10-12-2023, 00:30:01,    258,    2.3,    6.2,   0.00,   0.00, 1001.3,   60.7, -999.0
10-12-2023, 00:30:11,    253,    4.1,    6.2,   0.00,   0.00, 1001.4,   60.7, -999.0
10-12-2023, 00:30:21,    255,    4.1,    6.2,   0.00,   0.00, 1001.4,   60.8, -999.0
10-12-2023, 00:30:31,    223,    1.9,    6.2,   0.00,   0.00, 1001.4,   60.8, -999.0
10-12-2023, 00:30:41,    241,    3.7,    6.2,   0.00,   0.00, 1001.3,   60.8, -999.0
10-12-2023, 00:30:51,    261,    4.9,    6.3,   0.00,   0.00, 1001.4,   60.8, -999.0
10-12-2023, 00:31:01,    249,    2.6,    6.3,   0.00,   0.00, 1001.3,   60.9, -999.0
10-12-2023, 00:31:11,    243,    2.7,    6.2,   0.00,   0.00, 1001.4,   60.9, -999.0
10-12-2023, 00:31:21,    237,    2.8,    6.2,   0.00,   0.00, 1001.3,   60.8, -999.0
10-12-2023, 00:31:31,    240,    4.1,    6.2,   0.00,   0.00, 1001.3,   60.9, -999.0
10-12-2023, 00:31:41,    232,    2.8,    6.3,   0.00,   0.00, 1001.3,   60.8, -999.0
10-12-2023, 00:31:51,    232,    1.2,    6.2,   0.00,   0.00, 1001.4,   60.9, -999.0
10-12-2023, 00:32:01,    234,    0.2,    6.2,   0.00,   0.00, 1001.3,   60.8, -999.0
10-12-2023, 00:32:11,    233,    0.0,    6.2,   0.00,   0.00, 1001.3,   60.7, -999.0
10-12-2023, 00:32:21,    244,    1.5,    6.2,   0.00,   0.00, 1001.3,   60.8, -999.0
10-12-2023, 00:32:31,    263,    3.9,    6.2,   0.00,   0.00, 1001.4,   61.0, -999.0
10-12-2023, 00:32:41,    248,    3.3,    6.2,   0.00,   0.00, 1001.4,   61.0, -999.0
10-12-2023, 00:32:51,    239,    4.6,    6.2,   0.00,   0.00, 1001.4,   61.1, -999.0
10-12-2023, 00:33:01,    230,    3.0,    6.2,   0.00,   0.00, 1001.4,   61.1, -999.0
10-12-2023, 00:33:11,    233,    1.2,    6.2,   0.00,   0.00, 1001.4,   61.1, -999.0
10-12-2023, 00:33:21,    228,    2.2,    6.2,   0.00,   0.00, 1001.4,   61.1, -999.0
10-12-2023, 00:33:31,    264,    4.3,    6.2,   0.00,   0.00, 1001.4,   61.2, -999.0
10-12-2023, 00:33:41,    242,    1.8,    6.1,   0.00,   0.00, 1001.4,   61.0, -999.0
10-12-2023, 00:33:51,    242,    0.2,    6.1,   0.00,   0.00, 1001.3,   60.8, -999.0
10-12-2023, 00:34:01,    256,    0.6,    6.1,   0.00,   0.00, 1001.4,   61.1, -999.0
10-12-2023, 00:34:11,    248,    2.9,    6.1,   0.00,   0.00, 1001.5,   61.1, -999.0
10-12-2023, 00:34:21,    255,    4.9,    6.1,   0.00,   0.00, 1001.5,   61.1, -999.0
10-12-2023, 00:34:31,    262,    6.5,    6.1,   0.00,   0.00, 1001.5,   61.2, -999.0
10-12-2023, 00:34:41,    251,    4.5,    6.2,   0.00,   0.00, 1001.5,   61.2, -999.0
10-12-2023, 00:34:50,    242,    1.5,    6.1,   0.00,   0.00, 1001.6,   61.2, -999.0
10-12-2023, 00:35:01,    238,    0.8,    6.1,   0.00,   0.00, 1001.5,   61.2, -999.0
10-12-2023, 00:35:11,    240,    1.0,    6.1,   0.00,   0.00, 1001.5,   61.2, -999.0
10-12-2023, 00:35:20,    250,    2.2,    6.2,   0.00,   0.00, 1001.6,   61.2, -999.0
10-12-2023, 00:35:30,    246,    2.6,    5.9,   0.00,   0.00, 1001.6,   61.2, -999.0
10-12-2023, 00:35:41,    124,    1.4,    6.1,   0.00,   0.00, 1001.5,   61.1, -999.0
10-12-2023, 00:35:51,    238,    0.9,    6.1,   0.00,   0.00, 1001.5,   61.2, -999.0
10-12-2023, 00:36:00,    258,    1.3,    6.1,   0.00,   0.00, 1001.6,   61.2, -999.0
10-12-2023, 00:36:10,    249,    2.7,    6.1,   0.00,   0.00, 1001.6,   61.4, -999.0
10-12-2023, 00:36:21,    265,    4.1,    6.1,   0.00,   0.00, 1001.5,   61.4, -999.0
10-12-2023, 00:36:30,    274,    2.9,    6.1,   0.00,   0.00, 1001.6,   61.5, -999.0
10-12-2023, 00:36:40,    278,    2.7,    6.1,   0.00,   0.00, 1001.5,   61.4, -999.0
10-12-2023, 00:36:50,    312,    1.0,    6.1,   0.00,   0.00, 1001.5,   61.5, -999.0
10-12-2023, 00:37:00,    230,    0.9,    6.1,   0.00,   0.00, 1001.6,   61.3, -999.0
10-12-2023, 00:37:10,    273,    3.5,    6.1,   0.00,   0.00, 1001.6,   61.4, -999.0
10-12-2023, 00:37:20,    239,    4.5,    6.1,   0.00,   0.00, 1001.6,   61.3, -999.0
10-12-2023, 00:37:30,    248,    4.7,    6.2,   0.00,   0.00, 1001.6,   61.4, -999.0
10-12-2023, 00:37:40,    236,    3.9,    6.2,   0.00,   0.00, 1001.6,   61.4, -999.0
10-12-2023, 00:37:50,    245,    2.2,    6.2,   0.00,   0.00, 1001.6,   61.4, -999.0
10-12-2023, 00:38:00,    268,    2.9,    6.1,   0.00,   0.00, 1001.6,   61.4, -999.0
10-12-2023, 00:38:10,    256,    1.6,    6.2,   0.00,   0.00, 1001.6,   61.4, -999.0
10-12-2023, 00:38:20,    184,    0.6,    6.2,   0.00,   0.00, 1001.5,   61.2, -999.0
10-12-2023, 00:38:30,    187,    0.0,    6.1,   0.00,   0.00, 1001.5,   61.1, -999.0
10-12-2023, 00:38:40,    195,    0.0,    6.0,   0.00,   0.00, 1001.4,   61.0, -999.0
10-12-2023, 00:38:50,    276,    0.9,    6.2,   0.00,   0.00, 1001.6,   61.3, -999.0
10-12-2023, 00:39:00,    282,    1.8,    6.2,   0.00,   0.00, 1001.6,   61.3, -999.0
10-12-2023, 00:39:10,    245,    1.6,    6.2,   0.00,   0.00, 1001.6,   61.3, -999.0
10-12-2023, 00:39:20,    233,    0.9,    6.1,   0.00,   0.00, 1001.6,   61.3, -999.0
10-12-2023, 00:39:30,    242,    3.5,    6.1,   0.00,   0.00, 1001.6,   61.4, -999.0
10-12-2023, 00:39:40,    227,    2.7,    6.2,   0.00,   0.00, 1001.6,   61.4, -999.0
10-12-2023, 00:39:50,    228,    0.3,    6.1,   0.00,   0.00, 1001.5,   61.3, -999.0
10-12-2023, 00:40:00,    250,    1.6,    6.2,   0.00,   0.00, 1001.5,   61.4, -999.0
10-12-2023, 00:40:10,    233,    6.4,    6.1,   0.00,   0.00, 1001.6,   61.4, -999.0
10-12-2023, 00:40:20,    266,    5.1,    6.2,   0.00,   0.00, 1001.5,   61.4, -999.0
10-12-2023, 00:40:30,    232,    4.1,    6.2,   0.00,   0.00, 1001.5,   61.4, -999.0
10-12-2023, 00:40:40,    255,    4.7,    6.1,   0.00,   0.00, 1001.5,   61.4, -999.0
10-12-2023, 00:40:50,    264,    5.3,    6.3,   0.00,   0.00, 1001.6,   61.3, -999.0
10-12-2023, 00:41:00,    272,    3.3,    6.2,   0.00,   0.00, 1001.5,   61.3, -999.0
10-12-2023, 00:41:10,    256,    4.6,    6.3,   0.00,   0.00, 1001.6,   61.3, -999.0
10-12-2023, 00:41:20,    259,    4.3,    6.2,   0.00,   0.00, 1001.5,   61.2, -999.0
10-12-2023, 00:41:30,    295,    4.2,    6.2,   0.00,   0.00, 1001.6,   61.3, -999.0
10-12-2023, 00:41:40,    268,    1.8,    6.2,   0.00,   0.00, 1001.5,   61.2, -999.0
10-12-2023, 00:41:50,    249,    2.1,    6.2,   0.00,   0.00, 1001.6,   61.2, -999.0
10-12-2023, 00:42:00,    274,    4.3,    6.2,   0.00,   0.00, 1001.6,   61.2, -999.0
10-12-2023, 00:42:10,    213,    3.7,    6.2,   0.00,   0.00, 1001.6,   61.3, -999.0
10-12-2023, 00:42:20,    257,    2.6,    6.2,   0.00,   0.00, 1001.6,   61.3, -999.0
10-12-2023, 00:42:29,    211,    3.4,    6.1,   0.00,   0.00, 1001.6,   61.2, -999.0
10-12-2023, 00:42:40,    235,    4.1,    6.2,   0.00,   0.00, 1001.5,   61.2, -999.0
10-12-2023, 00:42:50,    260,    4.5,    6.1,   0.00,   0.00, 1001.6,   61.4, -999.0
10-12-2023, 00:42:59,    234,    3.5,    6.2,   0.00,   0.00, 1001.6,   61.3, -999.0
10-12-2023, 00:43:09,    250,    0.6,    6.1,   0.00,   0.00, 1001.6,   61.3, -999.0
10-12-2023, 00:43:20,    235,    1.9,    6.2,   0.00,   0.00, 1001.6,   61.4, -999.0
10-12-2023, 00:43:29,    230,    0.6,    6.0,   0.00,   0.00, 1001.5,   61.3, -999.0
10-12-2023, 00:43:39,    234,    0.0,    6.1,   0.00,   0.00, 1001.4,   61.0, -999.0
10-12-2023, 00:43:50,    284,    0.7,    6.1,   0.00,   0.00, 1001.5,   61.3, -999.0
10-12-2023, 00:44:00,    241,    0.8,    6.1,   0.00,   0.00, 1001.6,   61.4, -999.0
10-12-2023, 00:44:09,    266,    4.7,    6.1,   0.00,   0.00, 1001.5,   61.4, -999.0
10-12-2023, 00:44:19,    221,    2.3,    6.1,   0.00,   0.00, 1001.6,   61.4, -999.0
10-12-2023, 00:44:30,    253,    5.0,    6.1,   0.00,   0.00, 1001.6,   61.6, -999.0
10-12-2023, 00:44:39,    238,    4.7,    6.1,   0.00,   0.00, 1001.6,   61.6, -999.0
10-12-2023, 00:44:49,    253,    3.5,    6.2,   0.00,   0.00, 1001.6,   61.6, -999.0
10-12-2023, 00:44:59,    238,    7.1,    6.2,   0.00,   0.00, 1001.6,   61.6, -999.0
10-12-2023, 00:45:09,    241,    4.8,    6.2,   0.00,   0.00, 1001.6,   61.6, -999.0
10-12-2023, 00:45:19,    247,    4.3,    6.2,   0.00,   0.00, 1001.6,   61.6, -999.0
10-12-2023, 00:45:29,    243,    6.2,    6.2,   0.00,   0.00, 1001.6,   61.6, -999.0
10-12-2023, 00:45:39,    259,    3.4,    6.2,   0.00,   0.00, 1001.6,   61.5, -999.0
10-12-2023, 00:45:49,    267,    2.4,    6.2,   0.00,   0.00, 1001.6,   61.5, -999.0
10-12-2023, 00:45:59,    243,    1.7,    6.2,   0.00,   0.00, 1001.6,   61.5, -999.0
10-12-2023, 00:46:09,    226,    3.1,    6.2,   0.00,   0.00, 1001.6,   61.5, -999.0
10-12-2023, 00:46:19,    289,    3.8,    6.2,   0.00,   0.00, 1001.6,   61.4, -999.0
10-12-2023, 00:46:29,    250,    4.5,    6.3,   0.00,   0.00, 1001.6,   61.5, -999.0
10-12-2023, 00:46:39,    248,    3.0,    6.2,   0.00,   0.00, 1001.6,   61.4, -999.0
10-12-2023, 00:46:49,    181,    1.6,    6.3,   0.00,   0.00, 1001.6,   61.5, -999.0